This demonstration page uses our WeatherBlox Daily Observations layout. Learn more.

Left ArrowRight Arrow

Hourly Observations for February 22, 2022

Temp ( °F °C ) Dew Point ( °F °C ) Humidity (%) Winds ( mph kmh ) Pressure ( in mb ) Visibility ( mi km ) Precip ( " mm )
12:53 am 00:53 Cloudy with Haze -8 -22.2 -13 -25 78 78 ENE 12 19 30.73 1041 5 8 0.00 0.00
1:53 am 01:53 Cloudy -9 -22.8 -14 -25.6 78 78 ENE 9 15 30.74 1041 10 16 0.00 0.00
2:53 am 02:53 Cloudy -9 -22.8 -15 -26.1 75 75 ENE 9 15 30.74 1041 10 16 0.00 0.00
3:53 am 03:53 Cloudy -10 -23.3 -15 -26.1 78 78 ENE 8 13 30.75 1041 10 16 0.00 0.00
4:53 am 04:53 Cloudy -10 -23.3 -15 -26.1 78 78 ENE 7 11 30.76 1042 8 13 0.00 0.00
5:53 am 05:53 Cloudy -12 -24.4 -17 -27.2 78 78 NE 6 9 30.79 1043 9 14 0.00 0.00
6:53 am 06:53 Mostly Cloudy -13 -25 -18 -27.8 78 78 ENE 3 6 30.80 1043 10 16 0.00 0.00
7:53 am 07:53 Cloudy with Haze -12 -24.4 -18 -27.8 73 73 NE 3 6 30.83 1044 5 8 0.00 0.00
8:53 am 08:53 Cloudy -10 -23.3 -16 -26.7 74 74 E 7 11 30.84 1045 7 11 0.00 0.00
9:53 am 09:53 Cloudy -7 -21.7 -15 -26.1 68 68 ENE 6 9 30.85 1045 7 11 0.00 0.00
10:13 am 10:13 Cloudy with Light Snow -6 -21.1 -14 -25.6 67 67 NE 6 9 30.97 1049 3 4 0.00 0.00
10:23 am 10:23 Cloudy with Haze -6 -21.1 -14 -25.6 67 67 NE 6 9 30.97 1049 4 6 0.00 0.00
10:33 am 10:33 Cloudy -6 -21.1 -14 -25.6 67 67 ENE 7 11 30.96 1048 8 13 0.00 0.00
10:53 am 10:53 Mostly Cloudy -5 -20.6 -14 -25.6 64 64 ENE 6 9 30.84 1044 10 16 0.00 0.00
11:53 am 11:53 Sunny -3 -19.4 -13 -25 61 61 ENE 6 9 30.84 1045 10 16 0.00 0.00
12:53 pm 12:53 Sunny -2 -18.9 -12 -24.4 62 62 Calm 30.82 1044 10 16 0.00 0.00
1:53 pm 13:53 Sunny -1 -18.3 -11 -23.9 62 62 VRB 3 6 30.81 1043 10 16 0.00 0.00
2:53 pm 14:53 Sunny 0 -17.8 -11 -23.9 59 59 Calm 30.80 1043 10 16 0.00 0.00
3:53 pm 15:53 Sunny 1 -17.2 -12 -24.4 54 54 VRB 5 7 30.81 1043 10 16 0.00 0.00
4:53 pm 16:53 Sunny 0 -17.8 -12 -24.4 57 57 E 3 6 30.81 1043 10 16 0.00 0.00
5:53 pm 17:53 Clear -6 -21.1 -14 -25.6 67 67 ESE 3 6 30.83 1044 10 16 0.00 0.00
6:53 pm 18:53 Clear -12 -24.4 -18 -27.8 73 73 SE 5 7 30.85 1045 10 16 0.00 0.00
7:53 pm 19:53 Clear -15 -26.1 -21 -29.4 74 74 Calm 30.85 1045 10 16 0.00 0.00
8:53 pm 20:53 Clear -13 -25 -19 -28.3 74 74 SSW 3 6 30.84 1044 10 16 0.00 0.00
9:53 pm 21:53 Clear -15 -26.1 -20 -28.9 77 77 WSW 5 7 30.83 1044 10 16 0.00 0.00
10:53 pm 22:53 Clear -18 -27.8 -23 -30.6 77 77 Calm 30.82 1044 10 16 0.00 0.00
11:53 pm 23:53 Clear -17 -27.2 -21 -29.4 82 82 Calm 30.80 1043 10 16 0.00 0.00

Powered by AerisWeather